Starlink 5076

operational
NORAD ID: 55401 Int'l Des: 2023-014 Owner: SPXS Country: US Constellation: starlink
LEOCIRCULAR

Über Starlink 5076

Beschreibung wird geladen...

Live-Position

3D-Globus wird geladen...

Nächste Überflüge

Höhenverlauf

Altitude vs Time

uPlot chart will show altitude changes over time

Zweizeiliger Elementsatz

1 55401U 23014L 25347.54712146 -.00000624 00000-0 -44512-4 0 9990
2 55401 69.9999 281.5884 0002881 270.7518 89.3311 14.98332117159158
Epoch: 13. Dez. 2025 • Age: 23 hours

Aktueller Status

Höhe 580.0 km
Geschwindigkeit 7.57 km/s
Subsatellitenpunkt 45.77°N, 171.79°E
Startdatum 31. Jan. 2023
Alter 2.8 years
Typ internet

Technische Details

Klassifizierung Payload
Masse 305.00 kg
Trockenmasse 290.00 kg
Gesamtmasse 305.00 kg
Länge 0.20 m
Durchmesser 2.80 m
Spannweite 9.00 m
Form Box + pan
Hersteller SPXS
Bus-Typ Starlink
Phasenstatus In Orbit
Besitzer/Staat SPXS/US

Große Konstellationen

Loading constellations...